{"data":{"norad_id":52860,"epoch":"2026-05-25T03:01:11.280864Z","epoch_age_seconds":60620,"freshness":"FRESH","line1":"1 52860U 22062AG  26145.12582501 -.00001888  00000+0 -10049-3 0  9998","line2":"2 52860  53.2130  40.9845 0001854  86.9591 273.1613 15.08847402217465","mean_motion":15.08847402,"eccentricity":0.0001854,"inclination_deg":53.213,"raan_deg":40.9845,"arg_perigee_deg":86.9591,"mean_anomaly_deg":273.1613,"bstar":-0.00010049,"rev_number":21746,"period_min":95.437086486762,"perigee_km":538.43819327435,"apogee_km":541.00333493328,"semimajor_km":6917.8577641038,"source":"CELESTRAK","updated_at":"2026-05-25T13:38:17.247180Z"}}